Weather in Gorkovskoye

Russia / Altai Krai     52°04′32″N   82°08′05″E
temp.,
°C
wind,
m/s
gust,
m/s
humid.,
%
clouds,
%
prec.,
mm/h
press.,
hPa
HPBL,
m
8 march, mon
mon801:00−7s3387100 0.0 102131
04:00−8s238398 0.0 101923
07:00−8s348196 0.0 101848
10:00−4ssw4177892 0.0 1015498
13:000ssw10207296 0.0 1014709
16:00+1ssw101879100 0.0 1013904
19:00+1sw91782100 0.0 1014734
22:00+1sw91791100 0.1 1016799
9 march, tue
tue901:00−1wnw71196100 1.6 1021515
04:00−11w489393 0.1 1025192
07:00−14sw349564 0.1 102968
10:00−13sw479310 0.0 1030221
13:00−9sw47875 0.0 1028280
16:00−6wsw358327 0.0 1027295
19:00−9s128641 0.0 102521
22:00−8se229580 0.0 102424
10 march, wed
wed1001:00−8ssw129675 0.1 102221
04:00−5w239795 0.1 102192
07:00−6wsw229782 0.1 102052
10:00−4ssw1296100 0.0 101971
13:000sse3693100 0.0 1016346
16:00+1e2310074 0.0 101384
19:00−1ese239781 0.0 101036
22:00+2s51880100 0.0 1008602
11 march, thu
thu1101:00+1sw132294100 0.5 1007807
04:00+2sw91797100 2.2 1008622
07:00−2w81384100 2.8 1012528
10:00−6wsw61088100 0.0 1015412
13:00−5sw5887100 0.0 1017422
16:00−3sw71186100 0.0 1019790
19:00−4sw61286100 0.0 1021751
22:00−5ssw6148673 0.0 1021437
12 march, fri
fri1201:00−3ssw11207743 0.0 1019835
04:00−3sw9158594 0.3 10201218
07:00−8wsw7147598 0.3 1022795
10:00−9wsw81379100 0.0 1023905
13:00−8wsw81372100 0.0 10251082
16:00−8wsw7117178 0.0 10261058
19:00−10wsw598288 0.0 1028505
22:00−14wnw369079 0.0 1030237